Temp
13 14 15 16 17 18 19 20 20 20 19 18 18 18 17 16 15 15 15 14 13 12 12 12 14 13 14 13 14 13 13 13 12 12 11 11 11 11 10 11 10 11 11 10
14 15 16 16 17 18 19 20 20 20 19 18 18 18 18 16 16 15 15 14 13 13 12 11 12 13 14 14 14 14 14 13 12 12 11 10 8 7 7 9 11 11 11 11
16 16 16 17 17 18 18 19 20 21 20 18 19 18 19 18 16 16 15 15 14 14 13 12 11 14 14 14 14 14 13 13 13 12 12 11 11 11 10 10 12 11 11 11
16 17 16 16 17 18 18 19 20 20 18 18 19 20 19 19 18 17 16 15 15 14 14 13 11 12 14 14 14 14 13 13 13 12 12 12 12 11 10 11 8 12 12 12
16 16 17 16 17 18 18 19 19 20 20 20 20 19 21 19 19 18 17 16 16 15 14 14 13 11 11 11 13 14 13 13 14 13 13 12 12 12 11 11 11 11 11 11
16 16 16 17 17 17 18 19 19 19 20 20 20 19 21 16 20 19 19 17 16 16 15 14 13 12 11 11 13 14 14 14 14 14 13 13 12 12 11 11 11 11 11 11
15 16 16 17 16 17 17 18 19 20 21 21 20 20 17 21 20 19 19 19 18 16 16 15 14 13 12 15 15 15 15 15 14 14 14 13 13 12 12 12 11 11 11 11
16 16 16 16 16 17 17 18 19 19 21 22 21 21 21 20 20 20 19 19 19 17 16 16 16 16 16 16 16 16 15 15 14 14 14 13 13 12 12 12 11 11 11 11
17 16 16 16 16 16 18 18 19 20 20 21 21 21 20 20 20 19 19 19 19 18 17 16 17 17 16 16 16 16 15 15 14 14 14 13 13 13 12 12 12 11 11 11
16 17 17 17 16 16 17 18 18 19 21 21 22 21 21 20 19 19 19 19 19 19 18 17 16 16 17 16 16 16 15 15 15 14 14 13 13 13 13 12 12 12 11 11
15 16 17 17 16 16 16 17 18 19 19 21 21 22 21 20 19 19 19 19 19 19 18 17 16 15 17 16 16 16 15 15 15 15 14 14 14 13 13 13 12 12 11 11
15 16 16 17 17 16 16 17 18 19 19 19 20 22 21 21 20 19 19 20 20 19 19 18 17 16 15 17 17 16 15 15 15 15 15 14 14 13 13 13 12 12 12 11
15 15 16 16 17 16 16 17 18 18 19 19 20 20 20 20 20 19 19 19 19 19 19 19 18 17 15 17 18 16 15 15 15 15 14 14 14 14 13 13 12 12 12 11
15 15 15 17 17 17 16 16 17 18 19 19 19 19 20 20 19 19 19 19 19 19 18 18 18 17 16 17 18 17 16 15 15 15 14 14 14 14 13 13 13 12 12 12
13 14 15 15 16 17 17 16 16 17 18 18 19 19 19 19 19 19 18 18 18 18 18 18 19 18 17 17 18 18 17 16 15 15 15 15 15 15 14 13 13 12 12 11
13 13 14 15 15 16 17 17 17 16 17 17 18 18 19 19 19 19 19 18 18 18 18 18 18 18 18 19 18 18 17 16 16 15 15 15 15 15 14 14 14 14 13 13
12 13 13 14 15 15 16 16 17 17 17 16 16 17 17 18 18 18 18 18 18 18 18 18 18 19 19 19 18 18 17 16 16 16 16 15 15 15 15 15 14 14 14 14
12 12 13 14 14 15 15 16 16 16 16 17 17 17 17 17 17 17 17 17 17 17 17 18 17 18 18 18 18 17 17 16 16 16 16 16 15 15 15 15 14 13 13 13
11 12 12 13 14 14 15 15 15 15 15 16 16 17 17 16 17 17 17 17 17 17 17 17 17 18 18 18 18 17 17 17 16 16 16 16 15 15 14 13 13 13 12 12
10 10 12 13 14 15 16 13 14 14 15 15 15 15 16 16 16 16 16 16 17 17 17 17 17 17 18 18 18 18 17 17 17 16 16 15 14 14 13 13 13 13 13 13
10 10 11 13 13 14 11 12 13 13 14 14 14 14 15 15 16 16 16 16 16 16 17 16 18 18 18 18 18 18 17 17 17 16 15 14 14 13 13 13 12 12 12 12
10 10 11 12 13 14 11 11 12 13 13 13 13 13 14 15 15 15 15 16 16 16 16 17 17 18 18 18 18 17 17 16 16 15 14 14 13 13 12 12 12 12 11 12
11 11 12 12 13 11 11 11 12 12 12 11 11 13 13 13 13 13 14 15 14 15 16 16 17 18 17 18 17 16 15 14 14 14 14 14 14 13 12 12 12 12 12 11
11 11 12 10 7 9 10 11 11 10 10 9 10 10 11 11 10 11 11 10 10 11 13 15 16 17 15 17 16 14 14 14 14 13 13 12 12 12 12 12 11 11 10 9
9 8 11 9 6 6 6 10 10 8 7 7 8 9 8 8 8 8 8 8 8 8 8 10 13 14 13 14 13 13 12 12 12 12 12 12 12 12 11 10 10 9 9 9
3 6 6 7 8 8 8 7 7 5 5 5 6 7 7 8 8 8 7 7 7 9 10 11 11 11 12 11 11 11 12 12 12 12 12 12 11 10 10 9 9 8 8 8
Height
3133 3137 3134 3141 3146 3149 3148 3147 3148 3150 3152 3161 3164 3166 3168 3170 3173 3175 3177 3178 3180 3181 3183 3184 3185 3187 3188 3190 3191 3193 3194 3195 3197 3198 3200 3200 3201 3202 3202 3203 3203 3203 3204 3204
3131 3127 3135 3142 3145 3147 3144 3143 3145 3148 3149 3156 3159 3161 3163 3167 3170 3172 3174 3175 3176 3179 3181 3180 3181 3183 3185 3187 3188 3190 3192 3193 3195 3195 3197 3198 3199 3202 3201 3200 3201 3202 3202 3202
3122 3126 3133 3136 3139 3142 3142 3140 3140 3144 3147 3152 3155 3158 3158 3162 3165 3168 3169 3172 3173 3174 3176 3177 3177 3179 3181 3182 3185 3187 3189 3191 3192 3193 3194 3195 3196 3197 3198 3199 3199 3199 3199 3200
3120 3124 3127 3130 3132 3137 3137 3141 3140 3141 3145 3149 3151 3146 3148 3154 3159 3162 3164 3166 3168 3169 3172 3174 3173 3174 3176 3178 3180 3182 3184 3187 3189 3191 3191 3192 3194 3195 3197 3197 3199 3198 3199 3200
3113 3117 3120 3122 3124 3131 3134 3138 3139 3138 3137 3140 3142 3145 3137 3146 3149 3154 3159 3161 3163 3166 3167 3169 3171 3171 3172 3174 3175 3177 3181 3183 3185 3187 3189 3190 3192 3194 3195 3196 3198 3199 3200 3201
3108 3113 3115 3117 3124 3127 3133 3135 3135 3136 3134 3132 3133 3140 3132 3145 3142 3146 3151 3155 3158 3161 3163 3165 3168 3170 3168 3169 3170 3172 3175 3179 3182 3185 3186 3188 3190 3192 3194 3196 3197 3199 3200 3200
3103 3103 3108 3113 3118 3122 3127 3129 3128 3126 3122 3122 3129 3128 3139 3131 3135 3141 3145 3148 3151 3155 3158 3160 3161 3163 3164 3164 3166 3168 3171 3175 3179 3182 3184 3186 3188 3190 3192 3193 3196 3197 3198 3198
3093 3094 3097 3103 3106 3112 3115 3118 3115 3116 3114 3117 3119 3116 3120 3128 3131 3136 3139 3143 3145 3148 3151 3153 3154 3156 3158 3160 3162 3165 3168 3172 3175 3178 3181 3184 3186 3188 3190 3192 3193 3195 3196 3196
3083 3086 3093 3097 3103 3108 3107 3107 3114 3115 3112 3111 3108 3113 3119 3122 3126 3132 3136 3139 3141 3143 3146 3147 3149 3150 3152 3155 3158 3161 3164 3169 3172 3175 3178 3181 3183 3185 3187 3189 3190 3191 3192 3192
3077 3081 3084 3090 3098 3098 3098 3106 3108 3104 3099 3097 3100 3103 3108 3114 3122 3127 3131 3134 3136 3139 3141 3144 3144 3144 3146 3149 3154 3157 3160 3164 3168 3171 3174 3177 3179 3181 3183 3185 3186 3188 3188 3188
3073 3076 3078 3084 3079 3084 3092 3090 3094 3100 3099 3093 3094 3095 3102 3108 3115 3120 3124 3128 3130 3133 3136 3139 3141 3141 3141 3144 3147 3152 3155 3159 3162 3165 3169 3172 3175 3177 3179 3180 3182 3184 3184 3185
3064 3069 3070 3069 3076 3081 3085 3085 3089 3088 3093 3093 3091 3088 3097 3103 3109 3115 3118 3121 3124 3127 3130 3132 3136 3138 3138 3138 3141 3144 3149 3153 3157 3160 3164 3167 3170 3172 3174 3176 3177 3179 3179 3179
3057 3059 3062 3068 3069 3071 3072 3074 3078 3082 3087 3082 3087 3087 3095 3101 3103 3109 3114 3117 3119 3123 3125 3128 3130 3132 3132 3132 3135 3138 3143 3147 3151 3155 3158 3162 3164 3167 3167 3170 3171 3171 3173 3172
3047 3051 3050 3048 3055 3061 3065 3071 3073 3075 3074 3077 3076 3087 3090 3094 3100 3104 3108 3112 3115 3117 3119 3121 3125 3126 3125 3126 3129 3133 3137 3142 3146 3149 3152 3156 3158 3160 3161 3163 3164 3164 3166 3165
3043 3043 3045 3048 3050 3054 3056 3062 3066 3066 3067 3070 3073 3078 3084 3089 3095 3098 3103 3107 3110 3112 3114 3114 3116 3118 3117 3119 3123 3127 3132 3136 3140 3143 3146 3149 3151 3153 3155 3157 3158 3159 3159 3160
3037 3039 3042 3041 3047 3049 3049 3052 3056 3061 3063 3064 3069 3068 3077 3084 3087 3091 3094 3099 3102 3105 3108 3109 3108 3110 3110 3113 3117 3121 3125 3129 3133 3137 3140 3143 3145 3147 3149 3150 3151 3151 3152 3152
3029 3034 3038 3036 3042 3045 3046 3044 3046 3050 3054 3059 3062 3064 3074 3074 3077 3082 3087 3091 3094 3098 3101 3104 3102 3104 3104 3106 3111 3115 3118 3123 3127 3130 3134 3137 3138 3140 3142 3144 3145 3146 3146 3147
3021 3027 3032 3033 3038 3035 3032 3041 3043 3045 3047 3049 3052 3058 3063 3066 3070 3072 3077 3081 3085 3089 3093 3096 3096 3096 3099 3101 3105 3109 3112 3116 3120 3125 3127 3130 3131 3133 3136 3137 3138 3139 3140 3138
3015 3021 3026 3027 3026 3029 3030 3034 3034 3036 3037 3042 3045 3049 3052 3057 3061 3063 3065 3069 3074 3079 3083 3087 3089 3089 3091 3094 3098 3102 3105 3109 3113 3117 3120 3123 3125 3127 3129 3130 3131 3131 3130 3130
3010 3016 3018 3020 3017 3015 3024 3025 3028 3034 3033 3039 3042 3042 3044 3048 3050 3048 3057 3061 3066 3069 3073 3077 3080 3081 3083 3087 3090 3095 3099 3104 3107 3111 3114 3117 3118 3120 3121 3122 3122 3121 3121 3121
3002 3008 3009 3012 3012 3014 3014 3023 3028 3034 3035 3030 3032 3034 3035 3037 3039 3046 3050 3050 3055 3058 3062 3065 3069 3072 3075 3079 3082 3087 3092 3096 3100 3103 3105 3108 3111 3114 3115 3115 3115 3115 3114 3113
2992 2999 3001 3008 3007 3009 3012 3016 3023 3022 3020 3024 3027 3027 3028 3030 3033 3040 3037 3040 3045 3049 3053 3056 3060 3062 3066 3070 3075 3079 3084 3088 3091 3094 3098 3102 3104 3106 3108 3108 3108 3107 3105 3103
2985 2987 2996 3002 3003 3004 3005 3009 3014 3016 3018 3020 3022 3021 3023 3027 3026 3026 3029 3033 3036 3041 3044 3046 3049 3053 3057 3063 3068 3073 3077 3081 3085 3089 3092 3095 3097 3099 3101 3101 3099 3099 3097 3096
2980 2988 2992 2992 2995 2994 2999 3006 3012 3013 3014 3018 3019 3017 3020 3020 3020 3022 3025 3027 3032 3035 3036 3038 3041 3044 3050 3053 3059 3066 3071 3076 3079 3082 3085 3088 3090 3091 3092 3092 3092 3090 3089 3091
2967 2971 2981 2981 2986 2992 2999 3000 3003 3008 3012 3016 3011 3013 3015 3016 3019 3019 3021 3025 3031 3034 3034 3035 3036 3040 3048 3051 3056 3062 3068 3072 3075 3079 3081 3082 3083 3083 3083 3084 3084 3083 3085 3085
2967 2966 2974 2955 2978 2980 2990 2997 3001 3007 3010 3013 3012 3012 3012 3013 3015 3017 3019 3023 3030 3033 3036 3038 3038 3042 3047 3053 3056 3060 3064 3068 3070 3072 3074 3075 3075 3076 3076 3076 3076 3078 3078 3078
Wind_Speed
26 30 40 37 35 30 27 25 20 21 20 22 19 15 14 13 17 17 20 23 24 24 22 22 22 23 23 23 22 20 20 19 17 15 16 16 18 18 17 15 15 15 15 15
23 37 33 32 33 32 31 28 23 18 20 24 21 22 20 16 16 18 20 22 24 25 25 26 26 25 24 22 21 19 18 19 18 17 17 17 15 12 13 15 18 15 14 14
32 32 32 33 35 35 35 32 24 23 24 20 21 24 23 20 18 19 20 22 24 27 27 29 29 28 26 26 23 21 19 19 19 18 19 18 17 14 14 14 9 11 11 10
31 25 32 36 39 36 36 31 27 25 23 24 26 26 30 25 25 23 22 22 24 27 29 29 29 30 30 28 26 23 20 20 20 20 20 16 14 12 9 6 7 4 3 5
35 32 33 38 40 38 37 32 30 27 28 27 29 30 23 25 28 26 23 24 24 25 27 29 30 30 28 29 28 25 23 23 22 22 18 17 15 11 11 11 10 10 8 5
32 28 33 33 36 36 34 32 32 32 31 24 33 31 32 25 26 22 23 22 24 25 26 27 28 29 29 28 28 27 26 25 24 21 19 17 15 14 17 15 12 10 8 8
30 37 31 32 34 37 37 36 30 26 26 21 36 32 34 25 22 22 23 23 24 25 26 28 29 29 30 27 27 28 27 27 24 22 19 17 16 16 15 14 13 12 9 7
33 31 40 35 39 40 43 45 36 25 17 21 36 36 39 29 19 16 19 18 21 26 27 27 23 25 26 24 26 26 27 26 25 22 20 18 19 18 17 14 13 13 11 12
34 36 27 38 36 39 43 50 44 40 36 30 36 33 32 20 28 28 22 21 22 23 27 26 24 24 25 24 22 24 28 25 25 22 22 20 17 18 17 16 16 15 17 18
31 26 30 34 33 34 47 43 45 46 28 27 34 33 31 30 26 25 27 24 23 23 25 28 32 28 25 26 24 24 25 25 26 25 24 23 20 18 20 19 19 20 20 20
35 29 23 31 42 45 40 50 44 45 47 21 20 29 33 25 24 26 29 25 22 22 24 26 30 32 25 26 28 28 27 29 29 28 26 27 24 24 24 23 23 24 25 23
37 32 29 31 37 33 39 45 49 39 40 43 44 35 27 26 21 18 22 22 22 22 23 24 26 31 33 26 29 32 29 28 30 30 29 28 27 28 27 28 29 29 32 31
36 39 30 28 28 36 41 46 48 52 42 44 33 36 37 16 19 27 25 22 19 18 15 17 22 27 35 32 29 31 32 29 28 28 27 26 26 27 29 28 34 34 36 39
31 36 44 32 37 29 39 40 45 46 50 39 48 41 36 35 26 20 20 23 23 18 20 19 22 27 31 33 29 30 30 33 31 31 29 28 28 28 30 30 31 34 34 38
28 35 35 39 34 28 33 36 38 49 47 48 44 46 45 40 36 32 27 25 23 23 21 21 21 23 30 32 33 32 29 31 34 33 32 30 27 29 31 31 31 33 35 36
31 32 31 31 32 34 32 34 39 37 45 48 46 48 41 43 36 29 33 31 28 24 21 24 27 22 26 29 35 32 32 32 34 33 32 31 29 30 30 29 30 32 32 35
38 34 32 33 29 25 32 38 34 35 40 39 46 50 43 43 41 43 41 35 32 33 29 26 32 26 25 33 36 35 34 35 33 34 29 30 32 31 28 26 25 21 18 18
34 37 34 31 29 26 34 33 37 38 39 39 42 39 40 46 48 47 36 40 44 41 36 31 33 30 26 34 35 36 35 38 35 31 33 34 32 29 23 18 12 10 14 16
31 35 35 32 34 24 27 21 17 16 22 32 36 34 37 39 38 45 49 52 45 39 35 33 31 32 30 30 40 36 36 35 34 35 37 35 29 24 17 12 12 17 20 22
30 27 34 34 34 26 32 16 23 22 23 22 25 28 34 34 41 43 41 42 37 33 35 33 31 37 39 31 40 42 36 37 37 36 35 31 25 21 16 11 15 17 20 24
40 37 36 35 29 34 12 19 20 15 20 20 29 35 35 28 39 35 33 37 39 40 42 36 34 36 37 31 36 40 41 40 39 37 35 31 26 22 20 19 15 14 18 26
42 42 36 39 35 21 14 10 15 17 19 23 25 27 38 40 30 32 33 31 34 39 44 45 42 39 37 33 34 36 36 36 37 35 30 28 28 22 16 19 25 28 30 28
46 45 38 35 45 27 17 21 18 22 24 20 17 29 21 20 21 27 33 40 35 37 37 40 45 41 34 35 32 31 34 35 34 31 30 29 30 24 26 25 28 27 28 26
39 36 41 16 9 21 20 21 24 21 22 10 8 0 6 18 15 18 20 18 17 20 30 35 36 37 34 35 36 36 36 34 31 30 24 20 22 25 26 27 27 27 25 25
41 20 41 26 26 23 15 15 16 12 11 10 14 17 18 19 18 17 18 17 18 19 21 27 31 32 34 34 36 34 29 25 21 19 20 22 23 25 22 20 21 24 26 28
34 16 11 27 22 13 16 18 24 21 18 18 18 14 19 24 26 27 29 26 21 23 26 29 30 30 29 26 25 24 22 21 21 21 23 23 19 16 18 21 24 25 27 26
Wind_Direction
200 201 210 210 211 215 218 214 227 221 192 194 203 215 192 202 201 204 212 210 213 212 215 216 222 223 228 229 230 231 231 233 235 234 229 236 241 242 243 251 255 264 268 275
206 214 211 210 212 215 228 232 225 216 188 195 206 212 212 208 209 211 213 219 215 218 215 217 222 225 234 237 241 241 241 239 235 235 232 231 234 236 261 260 249 254 257 260
211 215 208 211 214 218 224 233 228 216 194 197 217 220 214 218 223 217 217 220 223 217 217 219 220 229 235 241 246 252 248 244 238 234 228 231 234 225 234 236 249 254 259 255
220 215 214 212 218 216 223 222 233 224 183 231 210 244 207 216 220 226 223 220 220 222 218 219 222 226 234 243 246 245 244 240 235 222 226 216 217 218 222 223 231 231 195 162
221 216 213 216 216 215 223 219 226 232 228 225 212 226 225 216 209 216 225 227 222 221 219 218 222 225 228 233 238 242 239 236 228 215 209 205 207 198 188 174 158 154 148 147
223 225 220 221 218 218 219 225 227 231 240 238 231 211 236 191 215 208 222 227 226 220 221 221 219 224 229 227 233 234 229 225 215 205 199 201 194 191 177 174 174 174 164 159
221 222 225 219 219 217 215 221 228 231 222 239 230 214 235 227 218 221 216 223 225 224 219 220 218 218 223 230 231 227 222 211 205 202 199 198 198 196 195 184 188 192 202 211
215 218 215 216 218 215 213 214 220 223 227 228 234 230 222 229 217 216 219 228 230 220 218 219 236 235 235 233 230 225 218 208 203 204 201 197 201 203 203 201 200 208 222 238
215 229 226 220 221 216 216 221 221 231 230 235 230 229 238 236 229 231 237 234 232 227 221 223 234 242 243 241 228 224 217 211 208 211 208 205 202 208 211 220 222 223 233 241
225 235 223 220 219 224 224 219 222 228 238 236 228 237 225 223 226 232 230 236 236 230 228 222 221 230 239 244 233 223 221 214 216 221 220 218 220 224 224 228 229 233 246 250
219 226 229 217 213 217 216 228 223 228 234 245 245 236 228 219 223 230 227 228 228 227 226 226 224 220 238 240 236 224 221 217 221 227 227 227 228 233 238 244 242 242 246 255
215 220 222 226 225 222 225 225 224 224 225 239 253 249 235 224 216 218 217 221 224 229 229 226 226 223 221 237 240 229 221 222 226 229 227 229 230 239 246 252 256 252 252 256
209 218 225 227 227 222 222 223 224 228 229 231 237 240 237 212 231 224 225 232 228 233 221 228 230 224 226 232 239 236 230 230 223 222 226 230 234 242 250 254 256 262 261 261
207 217 220 219 222 222 218 222 228 229 232 235 236 240 234 236 234 228 225 232 225 227 244 246 225 230 232 233 231 239 233 226 226 229 235 241 242 246 249 255 259 264 269 272
215 220 223 226 238 227 225 222 227 233 233 236 241 235 235 236 235 233 229 228 234 238 245 257 250 240 239 236 225 235 232 225 228 232 237 239 245 245 253 259 266 268 271 272
209 220 223 225 229 234 240 230 223 230 238 241 243 246 236 236 237 234 232 235 229 232 241 262 269 261 242 229 221 229 228 227 224 233 238 241 246 250 257 256 257 264 268 267
209 214 215 227 227 230 239 237 237 236 231 234 241 244 241 243 240 239 234 232 236 243 249 250 263 249 248 228 221 226 227 224 228 232 235 244 250 254 254 259 266 272 277 292
211 212 219 227 221 231 238 239 238 243 245 245 243 244 242 242 243 241 238 240 243 242 244 246 255 252 250 237 222 224 223 223 226 227 235 245 249 250 252 252 238 269 290 298
211 213 216 224 230 234 224 240 237 239 245 240 249 249 245 241 241 241 239 239 243 248 242 236 241 252 252 243 220 217 219 219 221 229 237 244 244 244 228 223 244 306 311 314
208 214 217 214 236 231 232 211 221 246 254 261 260 255 246 241 237 240 238 233 231 233 228 229 230 245 256 243 232 223 222 227 229 235 242 237 229 217 225 260 286 301 304 301
210 212 217 222 224 238 195 230 251 230 247 245 242 241 240 246 239 241 242 237 228 233 230 238 242 250 245 237 227 227 227 229 232 235 230 221 219 226 244 260 283 293 299 304
206 203 212 218 227 222 212 187 221 240 251 256 259 252 239 232 241 234 240 232 235 238 235 241 245 251 231 235 231 228 226 224 224 218 211 219 227 243 255 285 294 296 292 299
208 206 204 214 223 221 221 217 224 241 254 274 287 261 260 228 226 225 233 241 241 243 238 234 236 240 218 234 231 220 212 208 207 214 230 232 249 253 280 292 301 294 288 277
201 205 208 183 169 204 213 228 234 257 270 289 286 271 177 196 185 195 201 177 189 202 216 223 222 217 200 218 213 201 204 209 215 224 228 247 259 276 290 292 285 277 267 264
201 221 204 170 152 138 156 231 240 214 108 123 157 160 145 141 150 155 150 153 154 152 160 169 178 186 185 188 190 190 196 203 213 235 254 269 282 290 289 276 267 267 268 267
192 187 179 159 155 181 165 159 151 118 114 105 99 121 154 159 146 147 150 141 138 145 150 158 163 170 174 177 184 194 206 223 239 259 271 281 286 280 272 265 261 260 259 262